{"data":{"norad_id":62066,"epoch":"2026-09-21T05:10:36.029856Z","epoch_age_seconds":119608,"freshness":"FRESH","line1":"1 62066U 24217K   26264.21569479  .00106725  00000+0  87310-3 0  9991","line2":"2 62066  53.1575 187.3474 0002335 163.6513 196.4580 15.69746748105882","mean_motion":15.69746748,"eccentricity":0.0002335,"inclination_deg":53.1575,"raan_deg":187.3474,"arg_perigee_deg":163.6513,"mean_anomaly_deg":196.458,"bstar":0.0008731,"rev_number":10588,"period_min":91.734542647385,"perigee_km":358.04832713001,"apogee_km":361.1948603933,"semimajor_km":6737.7585937617,"source":"CELESTRAK","updated_at":"2026-09-22T09:00:49.493405Z"}}